Location: Saint-Maurice-d�Ard�che
(44.5216°N, 4.4002°E)
Time: 14:06:49
(UTC+00:00)

Daily predictions for brighter satellites

Satellite Brightness Start Highest point End
(mag) Time Altitude Azimuth Time Altitude Azimuth Time Altitude Azimuth
ADEOS Rocket 3.2 18:25:42 10° NNE 18:32:32 90° ESE 18:38:36 10° SSW
USA 234 3.9 18:27:17 10° ENE 18:33:07 34° SE 18:38:54 10° S
H-2A R/B 2.6 18:29:56 10° SE 18:34:49 39° ENE 18:39:37 10° N
STARLINK-1093 2.9 18:31:55 10° NW 18:35:05 74° NNE 18:38:14 10° ESE
STARLINK-1074 2.9 18:32:23 10° NW 18:35:32 74° NNE 18:38:42 10° ESE
HJ-1C 3.4 18:32:32 10° SSE 18:35:49 58° ENE 18:39:09 10° N
STARLINK-1087 2.9 18:32:52 10° NW 18:35:59 75° NNE 18:39:06 10° ESE
SL-16 R/B 2.7 18:31:10 10° S 18:36:21 38° ESE 18:41:33 10° NE
STARLINK-1088 2.9 18:33:19 10° NW 18:36:27 75° NNE 18:39:33 10° ESE
STARLINK-1225 3.5 18:32:39 10° SW 18:36:42 75° SE 18:40:46 10° ENE
STARLINK-1115 2.9 18:33:44 10° NW 18:36:54 76° NNE 18:40:03 10° ESE
CSL-04 Rocket 3.9 18:31:58 10° S 18:37:16 76° WSW 18:42:35 10° NNW
STARLINK-1076 2.9 18:34:11 10° NW 18:37:21 77° NNE 18:40:30 10° ESE
STARLINK-1092 2.9 18:34:38 10° NW 18:37:48 78° NNE 18:40:57 10° ESE
STARLINK-1080 2.8 18:35:07 10° NW 18:38:15 78° NE 18:41:22 10° ESE
Cosmos 2333 Rocket 4.3 18:33:38 10° WSW 18:38:39 31° NW 18:43:41 10° N
STARLINK-1090 2.8 18:35:34 10° NW 18:38:42 79° NNE 18:41:48 10° ESE
STARLINK-1072 3.8 18:34:55 10° NW 18:38:55 58° NNE 18:42:54 10° ESE
STARLINK-1089 2.8 18:36:00 10° NW 18:39:08 80° NNE 18:42:15 10° ESE
STARLINK-1107 2.8 18:36:28 10° NW 18:39:36 80° NNE 18:42:43 10° ESE
STARLINK-1230 3.5 18:37:22 10° SW 18:41:27 81° SE 18:45:31 10° ENE
Resurs 01 Rocket 3.6 18:40:03 10° E 18:41:35 12° ENE 18:43:07 10° NE
STARLINK-1096 3.7 18:39:16 10° NW 18:43:17 62° NNE 18:47:17 10° ESE
STARLINK-1233 3.6 18:41:05 10° WSW 18:44:10 53° NNW 18:47:15 10° NE
STARLINK-1212 3.6 18:41:34 10° WSW 18:44:37 52° NNW 18:47:42 10° NE
STARLINK-1105 3.7 18:42:00 10° WSW 18:45:04 52° NNW 18:48:09 10° NE
FREGAT/IRIS 3.4 18:43:06 10° SE 18:45:28 27° ENE 18:47:50 10° NNE
STARLINK-1206 3.7 18:42:30 10° WSW 18:45:33 51° NNW 18:48:36 10° NE
STARLINK-1247 3.7 18:42:56 10° WSW 18:45:59 51° NNW 18:49:02 10° NE
STARLINK-1243 3.6 18:42:11 10° SW 18:46:15 87° SE 18:50:21 10° ENE
STARLINK-1227 3.7 18:43:21 10° WSW 18:46:25 51° NNW 18:49:30 10° NE
STARLINK-1218 3.7 18:43:51 10° WSW 18:46:54 50° NNW 18:49:57 10° NE
Abrixas rocket 3.5 18:44:56 10° S 18:47:09 19° SE 18:49:06 11° E
STARLINK-1226 3.7 18:44:18 10° WSW 18:47:20 50° NNW 18:50:24 10° NE
STARLINK-1254 3.7 18:44:43 10° WSW 18:47:46 50° NNW 18:50:52 10° NE
STARLINK-1215 3.8 18:45:13 10° WSW 18:48:15 49° NNW 18:51:18 10° NE
STARLINK-1079 3.7 18:44:19 10° NW 18:48:20 67° NNE 18:52:10 11° ESE
STARLINK-1231 3.8 18:45:39 10° WSW 18:48:41 49° NNW 18:51:44 10° NE
STARLINK-1232 3.8 18:46:34 10° WSW 18:49:36 48° NNW 18:52:38 10° NE
Cosmos 1953 4.1 18:47:50 10° ESE 18:49:49 14° E 18:51:49 10° NE
STARLINK-1217 3.8 18:47:02 10° WSW 18:50:03 47° NNW 18:53:06 10° NE
STARLINK-1208 3.8 18:47:26 10° WSW 18:50:28 47° NNW 18:53:32 10° NE
Cosmos 304 Rocket 3.7 18:45:54 10° NNW 18:50:44 79° ENE 18:55:29 10° SSE
STARLINK-1229 3.8 18:47:56 10° WSW 18:50:57 47° NNW 18:53:59 10° NE
STARLINK-1236 3.6 18:46:58 10° WSW 18:51:02 87° NW 18:55:08 10° NE
Cosmos 1709 Rocket 4.2 18:45:20 10° N 18:51:22 50° ENE 18:57:18 10° SSE
STARLINK-1271 3.8 18:48:22 10° WSW 18:51:24 46° NNW 18:54:26 10° NE
STARLINK-1270 3.9 18:48:51 10° WSW 18:51:52 46° NNW 18:54:54 10° NE
SeaSat 1 4.0 18:47:17 10° NNE 18:51:53 40° NW 18:56:28 10° WSW
STARLINK-1154 3.9 18:49:18 10° WSW 18:52:19 46° NNW 18:55:21 10° NE
STARLINK-1116 3.6 18:48:44 10° NW 18:52:47 71° NNE 18:56:26 12° ESE
STARLINK-1197 3.9 18:50:12 10° WSW 18:53:13 45° NNW 18:56:15 10° NE
Cosmos 1269 Rocket 4.0 18:48:01 10° S 18:53:13 62° ESE 18:58:28 10° NNE
STARLINK-1189 3.9 18:50:40 10° WSW 18:53:40 45° NNW 18:56:42 10° NE
STARLINK-1187 4.1 18:51:34 10° W 18:54:33 40° NNW 18:57:33 10° NE
STARLINK-1188 3.9 18:51:34 10° WSW 18:54:34 44° NNW 18:57:36 10° NE
STARLINK-1198 3.9 18:51:35 10° WSW 18:54:35 44° NNW 18:57:36 10° NE
STARLINK-1235 4.3 18:52:20 10° W 18:55:17 37° NNW 18:58:14 10° NE
SL-08 ROCKET BODY 4.5 18:50:04 10° N 18:56:14 88° E 19:02:15 10° S
STARLINK-1199 4.0 18:53:31 10° W 18:56:32 43° NNW 18:59:34 10° NE
STARLINK-1191 4.0 18:53:58 10° W 18:56:59 43° NNW 19:00:00 10° NE
STARLINK-1210 4.0 18:54:26 10° W 18:57:26 42° NNW 19:00:28 10° NE
STARLINK-1221 4.0 18:54:53 10° W 18:57:54 42° NNW 19:00:55 10° NE
STARLINK-1219 4.1 18:55:21 10° W 18:58:21 42° NNW 19:01:23 10° NE
YAOGAN 1 4.4 18:54:50 10° SSW 18:58:45 34° W 19:02:43 10° NNW
STARLINK-1118 4.3 18:57:05 10° W 18:58:47 20° SW 19:00:29 10° S
STARLINK-1222 4.1 18:55:48 10° W 18:58:48 41° NNW 19:01:49 10° NE
STARLINK-1211 4.1 18:56:15 10° W 18:59:15 41° NNW 19:02:16 10° NE
STARLINK-1214 4.1 18:56:42 10° W 18:59:42 41° NNW 19:02:43 10° NE
ISS -2.1 18:56:58 10° NW 18:59:52 26° N 19:02:41 10° ENE
STARLINK-1245 4.1 18:57:12 10° W 19:00:10 40° NNW 19:03:09 10° NE
STARLINK-1238 4.1 18:57:35 10° W 19:00:34 40° NNW 19:03:35 10° NE
STARLINK-1269 3.7 18:56:48 10° WSW 19:00:52 76° NNW 19:04:57 10° NE
Cosmos 1455 Rocket 3.0 18:56:46 10° S 19:01:06 84° E 19:05:29 10° N
STARLINK-1205 4.1 18:58:31 10° W 19:01:29 40° NNW 19:04:28 10° NE
STARLINK-1204 4.2 18:59:00 10° W 19:01:58 39° NNW 19:04:56 10° NE
STARLINK-1094 3.5 18:57:59 10° NW 19:02:03 82° NNE 19:05:21 15° ESE
Cosmos 2297 3.7 18:56:43 10° NNW 19:02:24 67° ENE 19:08:04 10° SE
S3M 4.3 18:58:37 10° SSW 19:04:59 75° W 19:11:25 10° N
STARLINK-1200 3.8 19:01:38 10° WSW 19:05:42 70° NNW 19:09:46 10° NE
Cosmos 2237 Rocket 3.3 19:00:23 10° SW 19:05:49 49° WNW 19:11:18 10° NNE
STARLINK-1117 3.5 19:02:50 10° NW 19:06:54 88° NE 19:10:00 17° ESE
Cosmos 1892 Rocket 4.3 19:04:58 10° NNW 19:09:24 58° W 19:13:47 10° S
CZ-2C R/B 3.6 19:05:45 10° NE 19:09:53 24° E 19:13:59 10° SE
Cosmos 1626 Rocket 3.8 19:05:56 10° N 19:10:13 49° ENE 19:14:26 10° SSE
STARLINK-1192 3.9 19:06:24 10° WSW 19:10:27 66° NNW 19:14:31 10° NE
STARLINK-1078 3.5 19:07:16 10° WNW 19:11:20 87° SW 19:14:17 18° SE
BREEZE-M DEB (TANK) 4.0 19:01:38 10° WNW 19:12:46 50° SW 19:15:44 12° SSE
Cosmos 2278 Rocket 4.1 19:08:14 10° NW 19:13:10 31° WSW 19:18:05 10° SSW
ARGOS 3.1 19:09:45 10° SSE 19:15:08 73° ENE 19:20:32 10° N
STARLINK-1244 4.0 19:11:20 10° WSW 19:15:23 61° NNW 19:19:27 10° NE
STARLINK-1108 3.6 19:12:08 10° WNW 19:16:12 80° SSW 19:18:58 20° SE
Cosmos 1602 Rocket 3.9 19:13:54 10° N 19:18:14 46° ENE 19:21:45 14° SSE
STARLINK-1138 4.2 19:15:58 10° WSW 19:19:59 58° NNW 19:24:03 10° NE
STARLINK-1071 3.6 19:16:48 10° WNW 19:20:51 75° SW 19:23:26 21° SE
USA 186 2.0 19:19:00 10° S 19:22:26 79° WSW 19:25:51 10° NNW
STARLINK-1112 4.4 19:19:59 10° NW 19:23:56 40° NNE 19:26:14 21° E
MOS 1 Rocket 4.2 19:19:36 10° NNE 19:24:22 34° E 19:29:13 10° SSE
STARLINK-1143 4.3 19:20:53 10° WSW 19:24:54 54° NNW 19:28:56 10° NE
Meteor 1-24 Rocket 4.3 19:19:38 10° NNW 19:25:03 58° W 19:30:17 10° S
STARLINK-1110 3.7 19:21:16 10° WNW 19:25:19 69° SW 19:27:43 23° SE
MetOp-A 4.3 19:21:25 14° SE 19:25:52 52° ENE 19:31:03 10° N
STARLINK-1124 3.8 19:22:38 10° WNW 19:26:46 68° SW 19:29:13 23° SE
CZ-2C R/B 3.0 19:22:29 10° SSE 19:27:35 83° WSW 19:32:28 10° NNW
Cosmos 1544 Rocket 4.0 19:24:21 10° SSW 19:28:42 67° W 19:33:08 10° N
STARLINK-1128 4.4 19:24:57 10° NW 19:28:56 42° NNE 19:31:01 24° E
Cosmos 1470 2.6 19:26:52 10° S 19:30:43 83° E 19:34:38 10° N
STARLINK-1241 4.4 19:29:20 10° WSW 19:33:15 48° NNW 19:37:12 10° NE
STARLINK-1113 4.3 19:29:56 10° NW 19:33:56 44° NNE 19:35:47 26° E
SPOT 3 Rocket 3.5 19:29:48 14° SSE 19:34:18 67° ENE 19:39:30 10° N
STARLINK-1122 3.9 19:30:44 10° WNW 19:34:43 58° SW 19:36:48 26° SSE
Cosmos 1825 Rocket 4.4 19:33:19 10° NNE 19:37:13 29° ENE 19:37:54 28° E
IRIDIUM 103 4.4 19:32:58 10° N 19:38:08 57° E 19:42:00 17° SSE
STARLINK-1119 4.2 19:34:54 10° NW 19:38:55 47° NNE 19:40:34 30° E
STARLINK-1126 4.0 19:35:43 10° WNW 19:39:42 54° SW 19:41:36 28° SSE
SJ-6B 3.1 19:36:28 10° S 19:40:31 70° W 19:44:39 10° NNW
Cosmos 2369 Rocket 2.6 19:35:16 10° NNW 19:40:45 45° ENE 19:43:14 28° ESE
H-2A R/B 4.3 19:36:15 10° WSW 19:41:58 14° SW 19:44:56 10° SSW
Cosmos 1726 2.9 19:42:57 33° ENE 19:42:57 33° ENE 19:45:56 10° NNE
Ariane Rocket 4.1 19:38:46 10° S 19:43:35 43° W 19:48:25 10° NNW
STARLINK-1114 4.1 19:39:54 10° NW 19:43:58 50° NNE 19:45:24 33° E
STARLINK-1082 4.2 19:40:14 10° WNW 19:44:10 49° SW 19:45:55 29° SSE
Cosmos 1758 3.5 19:40:37 10° SSW 19:44:42 75° W 19:48:49 10° N
Aureole 2 Rocket 3.0 19:42:36 10° N 19:45:54 37° ENE 19:45:56 37° ENE
Cosmos 1758 Rocket 3.9 19:42:54 10° N 19:47:04 42° ENE 19:47:53 38° ESE
NOSS 3-3 (A) 4.1 19:42:06 10° S 19:47:31 44° ESE 19:53:33 10° NE
NOSS 3-3 (C) 4.1 19:42:13 10° S 19:47:38 43° ESE 19:53:38 10° NE
STARLINK-1130 (DARKSAT) 4.0 19:44:52 10° NW 19:48:56 53° NNE 19:50:10 38° E
STARLINK-1100 4.3 19:45:10 10° WNW 19:49:04 45° SW 19:50:38 30° SSE
CZ-2C R/B 3.7 19:45:18 10° NNE 19:50:06 90° SE 19:54:47 10° SSW
STARLINK-1083 4.4 19:49:57 10° WNW 19:53:48 42° SW 19:55:12 30° S
STARLINK-1084 3.9 19:49:49 10° NW 19:53:55 56° NNE 19:54:56 43° E
Cosmos 2184 Rocket 4.0 19:50:01 10° N 19:56:18 62° ENE 19:59:37 28° SSE
IRIDIUM 106 4.2 19:51:11 10° N 19:56:26 83° E 20:00:12 19° S
Spot 2 Rocket 4.2 19:55:42 32° E 19:56:31 34° ENE 20:01:07 10° N
Cosmos 1606 Rocket 4.1 19:59:07 39° ENE 19:59:07 39° ENE 20:02:52 10° NNE
STARLINK-1098 3.8 19:54:48 10° NW 19:58:55 60° NNE 19:59:43 49° ENE
Cosmos 1943 Rocket 2.0 19:56:40 10° NNW 20:02:15 83° ENE 20:04:35 36° SSE
Meteor 1-21 Rocket 4.1 19:57:12 10° N 20:02:48 90° ENE 20:06:08 25° S
Cosmos 1943 3.5 20:01:03 33° SSE 20:02:49 43° ESE 20:08:09 10° NE
STARLINK-1123 3.7 19:59:46 10° NW 20:03:54 65° NNE 20:04:30 56° ENE
Meteor 2-10 4.0 20:00:44 16° S 20:05:02 69° E 20:10:33 10° NNE
SL-8 R/B 4.0 20:01:26 10° WNW 20:06:10 60° NNE 20:07:35 41° ENE
Resurs 1-3 3.7 20:05:32 32° S 20:07:30 74° WSW 20:11:54 10° NNW
STARLINK-1097 3.6 20:04:44 10° NW 20:08:52 69° NNE 20:09:16 64° ENE
ATLAS 2AS CENTAUR R/B 3.7 20:04:25 10° NNW 20:11:31 38° NE 20:14:21 28° E
STARLINK-1099 3.5 20:09:43 10° NW 20:13:52 74° NNE 20:14:04 72° ENE
H-2A R/B 3.9 20:09:43 10° SSW 20:14:18 29° W 20:18:49 10° NW
USA 245 4.3 20:15:17 45° E 20:15:42 46° ENE 20:21:11 10° N
USA 234 3.4 20:09:56 10° NE 20:16:28 77° NW 20:23:00 10° WSW
Aureole 3 4.3 20:12:45 10° SSW 20:16:38 54° WNW 20:21:38 10° N
Cosmos 2154 Rocket 4.1 20:11:07 10° N 20:17:23 58° ENE 20:18:59 45° SE
Resurs 01 Rocket 1.5 20:16:28 56° S 20:17:24 84° WSW 20:21:50 10° NNW
STARLINK-1104 3.5 20:14:42 10° NW 20:18:51 80° NNE 20:18:51 80° NNE
DMSP B5D2-2 4.2 20:14:24 10° N 20:19:37 72° WNW 20:24:48 10° SSW
SL-16 R/B 3.8 20:15:19 10° WSW 20:20:28 35° NW 20:25:40 10° N
Cosmos 1328 4.5 20:17:23 10° N 20:20:25 44° NNE 20:20:25 44° NNE
Cosmos 2228 3.3 20:22:39 52° NE 20:22:39 52° NE 20:26:05 10° NNE
Abrixas rocket 4.2 20:19:32 10° WSW 20:20:46 22° WSW 20:20:46 22° WSW
Cosmos 967 Rocket 4.4 20:16:21 10° SSW 20:22:43 70° ESE 20:29:10 10° NE
STARLINK-1144 3.6 20:19:41 10° NW 20:23:38 80° NNW 20:23:38 80° NNW
Cosmos 1953 3.3 20:23:07 18° SW 20:25:46 46° WNW 20:29:38 10° N
STARLINK-1103 3.7 20:24:39 10° WNW 20:28:25 72° WNW 20:28:25 72° WNW
Cosmos 1992 Rocket 4.2 20:26:45 10° NNW 20:31:56 68° WSW 20:33:07 51° SSW
Nadezhda 1 Rocket 3.9 20:29:47 36° S 20:32:34 79° E 20:38:58 10° N
STARLINK-1101 3.9 20:29:38 10° WNW 20:33:11 64° WNW 20:33:11 64° WNW
ISS -1.9 20:33:42 10° WNW 20:35:39 32° NW 20:35:39 32° NW
STARLINK-1102 4.2 20:34:36 10° WNW 20:37:58 56° WNW 20:37:58 56° WNW
MetOp-B 4.0 20:40:10 70° S 20:40:49 86° WSW 20:46:14 10° NNW
Cosmos 1603 3.7 20:36:22 10° SSW 20:42:00 76° WNW 20:47:39 10° NNE
SPOT 5 4.3 20:44:25 24° NNE 20:44:25 24° NNE 20:46:37 10° N
Cosmos 2251 Rocket 4.2 20:37:42 10° SW 20:42:56 54° WNW 20:48:14 10° NNE
Meteor 1-16 Rocket 4.4 20:40:19 27° SSW 20:43:15 66° WNW 20:48:41 10° N
STARLINK-1111 4.4 20:39:36 10° WNW 20:42:45 49° WNW 20:42:45 49° WNW
Cosmos 2084 Rocket 4.2 20:39:27 10° NW 20:43:31 50° WSW 20:43:31 50° WSW
Cosmos 1703 4.3 20:40:59 10° NNW 20:43:49 44° NNW 20:43:49 44° NNW
ERS-1 Rocket 3.7 20:48:38 42° NNE 20:48:38 42° NNE 20:52:25 10° N
Landsat 7 4.2 20:49:40 56° NNE 20:49:40 56° NNE 20:53:31 10° N
CZ-2C R/B 3.5 20:45:28 10° N 20:50:24 46° WNW 20:55:18 10° SW
Cosmos 1656 Rocket 3.7 20:56:44 10° NNW 21:02:03 79° NNW 21:02:03 79° NNW
Aureole 1 Rocket 4.2 21:01:50 57° S 21:03:34 78° ESE 21:10:18 10° NNE
Meteor 1-11 4.3 20:58:34 10° NNW 21:04:21 74° W 21:04:29 73° WSW
COSMOS 2455 3.7 21:10:08 10° NNW 21:15:09 40° NNE 21:15:09 40° NNE
Cosmos 2341 Rocket 4.0 21:16:40 10° N 21:22:43 78° NW 21:22:43 78° NW
Cosmos 2369 Rocket 3.6 21:19:42 10° NW 21:24:33 29° WSW 21:25:03 29° WSW
NOSS 3-4 (A) 3.8 21:23:16 10° NW 21:30:09 80° NNE 21:30:09 80° NNE
Terra 3.4 21:32:45 30° N 21:32:45 30° N 21:35:10 10° N
NOSS 3-4 (C) 3.8 21:23:22 10° NW 21:30:14 80° NNE 21:30:14 80° NNE
Cosmos 1943 Rocket 4.5 21:42:21 10° WNW 21:45:13 14° W 21:46:08 14° WSW
ATLAS 2AS CENTAUR R/B 3.2 21:55:32 10° NW 22:01:48 56° WNW 22:01:48 56° WNW
Cosmos 1980 Rocket 4.4 22:33:05 10° N 22:35:28 18° NNE 22:35:28 18° NNE
CZ-4C R/B 4.3 22:32:04 10° NNW 22:37:52 28° NNE 22:38:44 27° NE
SL-16 R/B 4.5 23:52:44 21° NE 23:52:44 21° NE 23:56:38 10° N
